FW1924 Weather Reports


time (UTC)temp
F
wind
direction
speed
knots
gust
knots
rain 1hr
in
rain 24hr
in
rain mn
in
humidity
%
barometer
mb
20260507020005 58 28 0.0 2.6 0.00 0.14 0.14 29 1014.6
20260507014557 60 28 1.7 4.3 0.00 0.14 0.14 26 1014.6
20260507013103 61 337 0.0 3.5 0.00 0.14 0.14 25 1014.7
20260507011541 62 13 1.7 5.2 0.00 0.14 0.14 26 1014.7
20260507010039 62 355 2.6 8.7 0.00 0.14 0.14 24 1014.7
20260507004518 62 342 4.3 9.6 0.00 0.14 0.14 24 1014.8
20260507003012 62 311 4.3 10.4 0.00 0.14 0.14 24 1014.8
20260507001511 62 355 6.1 9.6 0.00 0.14 0.14 23 1014.8
20260507000002 62 328 6.1 11.3 0.00 0.14 0.14 23 1014.7
20260506234601 62 330 7.0 12.2 0.00 0.14 0.14 24 1014.7
20260506233045 62 309 9.6 14.8 0.00 0.14 0.14 25 1014.7
20260506231538 63 345 6.1 12.2 0.00 0.14 0.14 24 1014.9
20260506230031 63 329 6.1 13.0 0.00 0.14 0.14 24 1014.7
20260506224527 63 327 7.8 14.8 0.00 0.14 0.14 25 1014.9
20260506223013 63 295 7.8 14.8 0.00 0.14 0.14 26 1015.2
20260506221504 62 256 5.2 19.1 0.00 0.14 0.14 27 1015.4
20260506220108 62 271 10.4 15.6 0.00 0.14 0.14 27 1015.3
20260506214556 62 272 7.0 19.1 0.00 0.14 0.14 29 1015.4
20260506213048 62 346 4.3 15.6 0.00 0.14 0.14 28 1015.6
20260506211550 62 330 7.0 12.2 0.00 0.14 0.14 28 1015.8
20260506210030 62 269 8.7 13.9 0.00 0.14 0.14 28 1015.6
20260506204520 61 316 8.7 16.5 0.00 0.14 0.14 30 1015.8
20260506203013 60 314 4.3 13.9 0.00 0.14 0.14 32 1015.6
20260506201528 60 326 8.7 13.9 0.00 0.14 0.14 32 1015.7
20260506200019 59 9 8.7 18.2 0.00 0.14 0.14 31 1015.7
20260506194513 59 348 9.6 19.1 0.00 0.14 0.14 30 1015.5
20260506193002 59 327 8.7 14.8 0.00 0.14 0.14 32 1015.6
20260506191600 58 325 8.7 14.8 0.00 0.14 0.14 32 1015.6
20260506190051 58 321 8.7 13.9 0.00 0.14 0.14 33 1015.6
20260506184541 57 273 7.8 19.1 0.00 0.14 0.14 32 1015.7
20260506183036 57 335 11.3 16.5 0.00 0.14 0.14 31 1015.9
20260506181521 56 5 7.8 16.5 0.00 0.14 0.14 35 1015.6
20260506180011 55 329 7.8 19.1 0.00 0.14 0.14 33 1015.8
20260506174601 54 332 10.4 18.2 0.00 0.14 0.14 31 1015.8
20260506173117 54 314 10.4 16.5 0.00 0.14 0.14 34 1015.7
20260506171539 54 345 9.6 20.0 0.00 0.14 0.14 34 1015.5
20260506170032 53 320 11.3 20.0 0.00 0.14 0.14 30 1015.2
20260506164521 52 355 12.2 17.4 0.00 0.14 0.14 30 1014.9
20260506163009 51 331 9.6 18.2 0.00 0.14 0.14 36 1014.7
20260506161505 50 333 13.0 21.7 0.00 0.14 0.14 40 1014.5
20260506160009 49 338 13.9 20.9 0.00 0.14 0.14 40 1014.1
20260506154519 48 319 11.3 21.7 0.00 0.15 0.14 46 1013.9
20260506153109 48 327 7.8 18.2 0.00 0.15 0.14 49 1013.7
20260506151517 47 355 12.2 20.9 0.00 0.15 0.14 47 1013.5
20260506150005 46 334 10.4 18.2 0.00 0.15 0.14 48 1013.2
20260506144554 46 329 12.2 18.2 0.00 0.15 0.14 55 1013.3
20260506143052 45 328 8.7 13.0 0.00 0.15 0.14 62 1013.0
20260506141544 44 342 5.2 9.6 0.00 0.15 0.14 66 1013.0
20260506140044 43 5 4.3 8.7 0.00 0.15 0.14 69 1012.8
20260506134540 41 346 3.5 7.8 0.00 0.15 0.14 74 1012.6
20260506133030 40 304 1.7 5.2 0.00 0.15 0.14 78 1012.5
20260506131539 39 253 1.7 3.5 0.00 0.15 0.14 78 1012.0
20260506130008 39 242 0.9 1.7 0.00 0.15 0.14 78 1011.8
20260506124602 39 238 1.7 4.3 0.00 0.15 0.14 77 1011.4
20260506123058 40 238 1.7 4.3 0.00 0.15 0.14 77 1011.2
20260506121549 39 244 3.5 7.0 0.00 0.15 0.14 77 1011.3
20260506120049 40 240 2.6 6.1 0.00 0.15 0.14 77 1011.1
20260506114547 40 240 1.7 7.0 0.00 0.15 0.14 77 1011.0
20260506113047 40 246 1.7 7.0 0.00 0.15 0.14 78 1011.1
20260506111539 40 335 0.0 5.2 0.00 0.15 0.14 79 1011.0
20260506110106 40 298 1.7 5.2 0.00 0.15 0.14 80 1011.0
20260506104553 39 313 0.9 4.3 0.00 0.19 0.14 80 1011.0
20260506103048 39 336 5.2 12.2 0.00 0.19 0.14 81 1010.7
20260506101546 39 355 4.3 11.3 0.00 0.19 0.14 82 1010.4
20260506100038 39 345 3.5 7.8 0.00 0.19 0.14 83 1010.0
20260506094531 40 355 4.3 10.4 0.02 0.19 0.14 83 1009.5
20260506093021 40 33 2.6 7.8 0.10 0.19 0.14 83 1009.3
20260506091512 41 14 0.0 4.3 0.13 0.19 0.14 82 1008.9
20260506090100 41 39 5.2 11.3 0.14 0.19 0.14 81 1008.5
20260506084548 43 35 5.2 13.9 0.12 0.17 0.12 78 1008.4
20260506083037 46 345 8.7 20.9 0.04 0.09 0.04 76 1007.8
20260506081531 47 63 0.9 3.5 0.00 0.05 0.00 76 1005.9
20260506073013 49 58 0.9 3.5 0.00 0.05 0.00 73 1005.7
20260506071502 50 69 1.7 5.2 0.00 0.05 0.00 72 1005.9
20260506061520 51 240 0.9 7.0 0.00 0.05 0.00 65 1005.4
20260506060132 51 223 5.2 15.6 0.00 0.05 0.00 63 1005.3
20260506044615 49 205 3.5 7.8 0.00 0.05 0.05 63 1004.0
20260506043051 49 220 3.5 7.8 0.00 0.05 0.05 63 1004.0
20260506041547 49 190 4.3 7.8 0.00 0.05 0.05 64 1004.0
20260506040036 49 205 2.6 6.1 0.00 0.05 0.05 63 1004.0
20260506034527 50 198 2.6 6.1 0.00 0.05 0.05 62 1003.9
20260506033018 50 208 2.6 7.8 0.00 0.05 0.05 61 1003.8
20260506031510 51 204 3.5 7.0 0.00 0.05 0.05 59 1003.5
20260506030018 52 185 3.5 7.8 0.00 0.05 0.05 57 1003.3
20260506024603 53 183 5.2 8.7 0.00 0.05 0.05 56 1003.1
20260506023055 54 180 7.0 10.4 0.00 0.05 0.05 54 1002.9
20260506021543 55 155 5.2 9.6 0.00 0.05 0.05 53 1002.8